Time,TemperatureF,DewpointF,PressureIn,WindDirection,WindDirectionDegrees,WindSpeedMPH,WindSpeedGustMPH,Humidity,HourlyPrecipIn,Conditions,Clouds,dailyrainin,SoftwareType,DateUTC
2013-02-04 00:00:00,13.3,6.2,29.97,SW,225,0.0,0.0,73,0.00,,,0.00,WUHU21623XXSP,2013-02-04 05:00:00,
2013-02-04 00:01:00,13.3,6.2,29.97,SW,225,0.0,0.0,73,0.00,,,0.00,WUHU21623XXSP,2013-02-04 05:01:00,
2013-02-04 00:02:00,13.3,6.2,29.97,SW,225,0.0,0.0,73,0.00,,,0.00,WUHU21623XXSP,2013-02-04 05:02:00,
2013-02-04 00:03:00,13.3,6.2,29.97,SW,225,0.0,0.0,73,0.00,,,0.00,WUHU21623XXSP,2013-02-04 05:03:00,
2013-02-04 00:12:00,13.3,6.2,29.97,SW,225,0.0,0.0,73,0.00,,,0.00,WUHU21623XXSP,2013-02-04 05:12:00,
2013-02-04 00:17:00,13.1,6.3,29.97,SW,225,0.9,0.9,74,0.00,,,0.00,WUHU21623XXSP,2013-02-04 05:17:00,
2013-02-04 00:22:00,12.9,6.2,29.97,SW,225,0.0,0.9,74,0.00,,,0.00,WUHU21623XXSP,2013-02-04 05:22:00,
2013-02-04 00:27:00,12.9,6.2,29.97,SSW,202,0.0,0.0,74,0.00,,,0.00,WUHU21623XXSP,2013-02-04 05:27:00,
2013-02-04 00:32:00,12.7,6.0,29.97,SW,225,1.6,1.6,74,0.00,,,0.00,WUHU21623XXSP,2013-02-04 05:32:00,
2013-02-04 00:37:00,12.7,6.0,29.97,SSW,202,0.0,1.6,74,0.00,,,0.00,WUHU21623XXSP,2013-02-04 05:37:00,
2013-02-04 00:42:00,12.7,6.0,29.98,SSW,202,0.0,0.0,74,0.00,,,0.00,WUHU21623XXSP,2013-02-04 05:42:00,
2013-02-04 00:47:00,12.7,6.0,29.97,SW,225,0.0,0.0,74,0.00,,,0.00,WUHU21623XXSP,2013-02-04 05:47:00,
2013-02-04 00:52:00,12.6,6.1,29.98,SW,225,0.0,0.0,75,0.00,,,0.00,WUHU21623XXSP,2013-02-04 05:52:00,
2013-02-04 00:57:00,12.6,6.1,29.98,SW,225,0.0,0.0,75,0.00,,,0.00,WUHU21623XXSP,2013-02-04 05:57:00,
2013-02-04 01:02:00,12.4,5.9,29.98,SW,225,0.0,0.0,75,0.00,,,0.00,WUHU21623XXSP,2013-02-04 06:02:00,
2013-02-04 01:07:00,12.4,5.9,29.99,SSW,202,0.0,0.0,75,0.00,,,0.00,WUHU21623XXSP,2013-02-04 06:07:00,
2013-02-04 01:12:00,12.4,5.9,29.99,SW,225,0.0,0.0,75,0.00,,,0.00,WUHU21623XXSP,2013-02-04 06:12:00,
2013-02-04 01:17:00,12.2,5.7,29.99,SW,225,0.0,0.0,75,0.00,,,0.00,WUHU21623XXSP,2013-02-04 06:17:00,
2013-02-04 01:22:00,12.0,5.7,29.99,SW,225,0.0,0.0,75,0.00,,,0.00,WUHU21623XXSP,2013-02-04 06:22:00,
2013-02-04 01:27:00,12.0,5.5,29.99,SW,225,0.0,0.0,75,0.00,,,0.00,WUHU21623XXSP,2013-02-04 06:27:00,
2013-02-04 01:32:00,12.0,5.5,29.99,SW,225,0.0,0.0,75,0.00,,,0.00,WUHU21623XXSP,2013-02-04 06:32:00,
2013-02-04 01:37:00,12.0,5.5,29.99,SSW,202,0.0,0.0,75,0.00,,,0.00,WUHU21623XXSP,2013-02-04 06:37:00,
2013-02-04 01:42:00,11.8,5.4,29.99,SSW,202,0.0,0.0,75,0.00,,,0.00,WUHU21623XXSP,2013-02-04 06:42:00,
2013-02-04 01:47:00,11.8,5.4,29.99,SSW,202,0.0,0.0,75,0.00,,,0.00,WUHU21623XXSP,2013-02-04 06:47:00,
2013-02-04 01:52:00,11.5,5.0,29.99,SSW,202,0.0,0.0,75,0.00,,,0.00,WUHU21623XXSP,2013-02-04 06:52:00,
2013-02-04 01:57:00,11.5,5.0,29.99,SSW,202,0.0,0.0,75,0.00,,,0.00,WUHU21623XXSP,2013-02-04 06:57:00,
2013-02-04 02:02:00,11.3,5.0,29.98,SSW,202,0.0,0.0,75,0.00,,,0.00,WUHU21623XXSP,2013-02-04 07:02:00,
2013-02-04 02:07:00,11.1,4.6,29.99,SSW,202,0.0,0.0,75,0.00,,,0.00,WUHU21623XXSP,2013-02-04 07:07:00,
2013-02-04 02:12:00,11.1,4.9,29.99,SSW,202,0.0,0.0,76,0.00,,,0.00,WUHU21623XXSP,2013-02-04 07:12:00,
2013-02-04 02:17:00,11.1,4.9,29.99,SSW,202,0.0,0.0,76,0.00,,,0.00,WUHU21623XXSP,2013-02-04 07:17:00,
2013-02-04 02:22:00,11.3,5.1,29.99,SSW,202,0.0,0.0,76,0.00,,,0.00,WUHU21623XXSP,2013-02-04 07:22:00,
2013-02-04 02:27:00,11.5,5.3,29.99,SSW,202,0.0,0.0,76,0.00,,,0.00,WUHU21623XXSP,2013-02-04 07:27:00,
2013-02-04 02:32:00,11.7,5.3,30.00,SSW,202,0.0,0.0,77,0.00,,,0.00,WUHU21623XXSP,2013-02-04 07:32:00,
2013-02-04 02:37:00,11.8,5.9,29.99,SSW,202,0.0,0.0,77,0.00,,,0.00,WUHU21623XXSP,2013-02-04 07:37:00,
2013-02-04 02:42:00,12.0,6.1,29.99,SSW,202,0.0,0.0,77,0.00,,,0.00,WUHU21623XXSP,2013-02-04 07:42:00,
2013-02-04 02:47:00,12.0,6.1,30.00,SSW,202,0.0,0.0,77,0.00,,,0.00,WUHU21623XXSP,2013-02-04 07:47:00,
2013-02-04 02:52:00,12.4,6.8,29.99,SSW,202,0.0,0.0,78,0.00,,,0.00,WUHU21623XXSP,2013-02-04 07:52:00,
2013-02-04 02:57:00,12.4,6.8,29.99,SSW,202,0.0,0.0,78,0.00,,,0.00,WUHU21623XXSP,2013-02-04 07:57:00,
2013-02-04 03:02:00,12.6,6.9,29.99,SSW,202,0.0,0.0,78,0.00,,,0.00,WUHU21623XXSP,2013-02-04 08:02:00,
2013-02-04 03:07:00,12.7,7.1,29.99,SSW,202,0.0,0.0,78,0.00,,,0.00,WUHU21623XXSP,2013-02-04 08:07:00,
2013-02-04 03:12:00,12.7,7.1,29.99,SSW,202,0.0,0.0,78,0.00,,,0.00,WUHU21623XXSP,2013-02-04 08:12:00,
2013-02-04 03:17:00,12.9,7.3,29.99,SSW,202,0.0,0.0,78,0.00,,,0.00,WUHU21623XXSP,2013-02-04 08:17:00,
2013-02-04 03:22:00,13.1,7.5,29.99,SSW,202,0.0,0.0,78,0.00,,,0.00,WUHU21623XXSP,2013-02-04 08:22:00,
2013-02-04 03:27:00,13.3,7.7,29.99,SSW,202,0.0,0.0,78,0.00,,,0.00,WUHU21623XXSP,2013-02-04 08:27:00,
2013-02-04 03:32:00,13.3,7.7,29.99,SSW,202,0.0,0.0,78,0.00,,,0.00,WUHU21623XXSP,2013-02-04 08:32:00,
2013-02-04 03:37:00,13.3,7.7,29.99,SSW,202,0.0,0.0,78,0.00,,,0.00,WUHU21623XXSP,2013-02-04 08:37:00,
2013-02-04 03:42:00,13.3,7.7,29.99,SSW,202,0.0,0.0,78,0.00,,,0.00,WUHU21623XXSP,2013-02-04 08:42:00,
2013-02-04 03:47:00,13.6,8.3,29.99,SSW,202,0.0,0.0,79,0.00,,,0.00,WUHU21623XXSP,2013-02-04 08:47:00,
2013-02-04 03:52:00,13.6,8.3,29.99,SSW,202,0.0,0.0,79,0.00,,,0.00,WUHU21623XXSP,2013-02-04 08:52:00,
2013-02-04 03:57:00,13.6,8.3,29.99,SSW,202,0.0,0.0,79,0.00,,,0.00,WUHU21623XXSP,2013-02-04 08:57:00,
2013-02-04 04:02:00,13.8,8.5,29.99,SSW,202,0.0,0.0,79,0.00,,,0.00,WUHU21623XXSP,2013-02-04 09:02:00,
2013-02-04 04:07:00,13.8,8.5,29.98,SSW,202,0.0,0.0,79,0.00,,,0.00,WUHU21623XXSP,2013-02-04 09:07:00,
2013-02-04 04:12:00,13.8,8.5,29.99,SSW,202,0.0,0.0,79,0.00,,,0.00,WUHU21623XXSP,2013-02-04 09:12:00,
2013-02-04 04:17:00,13.8,8.5,29.98,SSW,202,0.0,0.0,79,0.00,,,0.00,WUHU21623XXSP,2013-02-04 09:17:00,
2013-02-04 04:22:00,14.2,9.1,29.98,SSW,202,0.0,0.0,80,0.00,,,0.00,WUHU21623XXSP,2013-02-04 09:22:00,
2013-02-04 04:27:00,14.2,9.1,29.98,SSW,202,0.0,0.0,80,0.00,,,0.00,WUHU21623XXSP,2013-02-04 09:27:00,
2013-02-04 04:32:00,14.2,9.1,29.98,SSW,202,0.0,0.0,80,0.00,,,0.00,WUHU21623XXSP,2013-02-04 09:32:00,
2013-02-04 04:37:00,14.4,9.3,29.98,SSW,202,0.0,0.0,80,0.00,,,0.00,WUHU21623XXSP,2013-02-04 09:37:00,
2013-02-04 04:42:00,14.4,9.3,29.98,SSW,202,0.0,0.0,80,0.00,,,0.00,WUHU21623XXSP,2013-02-04 09:42:00,
2013-02-04 04:47:00,14.4,9.3,29.97,SSW,202,0.0,0.0,80,0.00,,,0.00,WUHU21623XXSP,2013-02-04 09:47:00,
2013-02-04 04:52:00,14.4,9.3,29.98,SSW,202,0.0,0.0,80,0.00,,,0.00,WUHU21623XXSP,2013-02-04 09:52:00,
2013-02-04 04:57:00,14.5,9.5,29.98,SSW,202,0.0,0.0,80,0.00,,,0.00,WUHU21623XXSP,2013-02-04 09:57:00,
2013-02-04 05:02:00,14.4,9.3,29.98,SSW,202,0.0,0.0,80,0.00,,,0.00,WUHU21623XXSP,2013-02-04 10:02:00,
2013-02-04 05:07:00,14.4,9.3,29.97,SSW,202,0.0,0.0,80,0.00,,,0.00,WUHU21623XXSP,2013-02-04 10:07:00,
2013-02-04 05:12:00,14.4,9.3,29.97,SSW,202,0.0,0.0,80,0.00,,,0.00,WUHU21623XXSP,2013-02-04 10:12:00,
2013-02-04 05:17:00,14.4,9.3,29.97,SSW,202,0.0,0.0,80,0.00,,,0.00,WUHU21623XXSP,2013-02-04 10:17:00,
2013-02-04 05:22:00,14.2,9.1,29.98,SSW,202,0.0,0.0,80,0.00,,,0.00,WUHU21623XXSP,2013-02-04 10:22:00,
2013-02-04 05:27:00,14.2,9.1,29.98,SSW,202,0.0,0.0,80,0.00,,,0.00,WUHU21623XXSP,2013-02-04 10:27:00,
2013-02-04 05:32:00,14.2,9.1,29.98,SSW,202,0.0,0.0,80,0.00,,,0.00,WUHU21623XXSP,2013-02-04 10:32:00,
2013-02-04 05:37:00,14.2,9.1,29.97,SSW,202,0.0,0.0,80,0.00,,,0.00,WUHU21623XXSP,2013-02-04 10:37:00,
2013-02-04 05:42:00,14.2,9.4,29.97,SSW,202,0.0,0.0,81,0.00,,,0.00,WUHU21623XXSP,2013-02-04 10:42:00,
2013-02-04 05:47:00,14.2,9.4,29.97,SSW,202,0.0,0.0,81,0.00,,,0.00,WUHU21623XXSP,2013-02-04 10:47:00,
2013-02-04 05:52:00,14.4,9.6,29.96,SSW,202,0.0,0.0,81,0.00,,,0.00,WUHU21623XXSP,2013-02-04 10:52:00,
2013-02-04 05:57:00,14.4,9.6,29.96,SSW,202,0.0,0.0,81,0.00,,,0.00,WUHU21623XXSP,2013-02-04 10:57:00,
2013-02-04 06:02:00,14.5,9.8,29.96,SSW,202,0.0,0.0,81,0.00,,,0.00,WUHU21623XXSP,2013-02-04 11:02:00,
2013-02-04 06:07:00,14.5,9.8,29.96,SSW,202,0.0,0.0,81,0.00,,,0.00,WUHU21623XXSP,2013-02-04 11:07:00,
2013-02-04 06:12:00,14.5,9.8,29.96,SSW,202,0.0,0.0,81,0.00,,,0.00,WUHU21623XXSP,2013-02-04 11:12:00,
2013-02-04 06:17:00,14.7,9.9,29.96,South,180,0.0,0.0,81,0.00,,,0.00,WUHU21623XXSP,2013-02-04 11:17:00,
2013-02-04 06:22:00,14.7,9.9,29.96,South,180,0.0,0.0,81,0.00,,,0.00,WUHU21623XXSP,2013-02-04 11:22:00,
2013-02-04 06:27:00,14.7,9.9,29.97,South,180,0.0,0.0,81,0.00,,,0.00,WUHU21623XXSP,2013-02-04 11:27:00,
2013-02-04 06:32:00,14.7,9.9,29.96,South,180,0.0,0.0,81,0.00,,,0.00,WUHU21623XXSP,2013-02-04 11:32:00,
2013-02-04 06:37:00,14.7,9.9,29.97,South,180,0.0,0.0,81,0.00,,,0.00,WUHU21623XXSP,2013-02-04 11:37:00,
2013-02-04 06:42:00,14.9,10.1,29.96,South,180,0.0,0.0,81,0.00,,,0.00,WUHU21623XXSP,2013-02-04 11:42:00,
2013-02-04 06:47:00,14.9,10.1,29.96,South,180,0.0,0.0,81,0.00,,,0.00,WUHU21623XXSP,2013-02-04 11:47:00,
2013-02-04 06:52:00,14.9,10.1,29.96,South,180,0.0,0.0,81,0.00,,,0.00,WUHU21623XXSP,2013-02-04 11:52:00,
2013-02-04 06:57:00,14.9,10.1,29.96,South,180,0.0,0.0,81,0.00,,,0.00,WUHU21623XXSP,2013-02-04 11:57:00,
2013-02-04 07:02:00,14.9,10.1,29.96,South,180,0.0,0.0,81,0.00,,,0.00,WUHU21623XXSP,2013-02-04 12:02:00,
2013-02-04 07:07:00,15.1,10.3,29.96,South,180,0.0,0.0,81,0.00,,,0.00,WUHU21623XXSP,2013-02-04 12:07:00,
2013-02-04 07:12:00,15.1,10.3,29.97,South,180,0.0,0.0,81,0.00,,,0.00,WUHU21623XXSP,2013-02-04 12:12:00,
2013-02-04 07:17:00,15.1,10.3,29.96,South,180,0.0,0.0,81,0.00,,,0.00,WUHU21623XXSP,2013-02-04 12:17:00,
2013-02-04 07:22:00,15.1,10.3,29.96,South,180,0.0,0.0,81,0.00,,,0.00,WUHU21623XXSP,2013-02-04 12:22:00,
2013-02-04 07:27:00,15.1,10.3,29.96,South,180,0.0,0.0,81,0.00,,,0.00,WUHU21623XXSP,2013-02-04 12:27:00,
2013-02-04 07:32:00,15.1,10.3,29.96,South,180,0.0,0.0,81,0.00,,,0.00,WUHU21623XXSP,2013-02-04 12:32:00,
2013-02-04 07:37:00,15.1,10.3,29.96,South,180,0.0,0.0,81,0.00,,,0.00,WUHU21623XXSP,2013-02-04 12:37:00,
2013-02-04 07:42:00,15.1,10.3,29.96,South,180,0.0,0.0,81,0.00,,,0.00,WUHU21623XXSP,2013-02-04 12:42:00,
2013-02-04 07:47:00,15.3,10.5,29.96,South,180,0.0,0.0,81,0.00,,,0.00,WUHU21623XXSP,2013-02-04 12:47:00,
2013-02-04 07:52:00,15.3,10.5,29.96,South,180,0.0,0.0,81,0.00,,,0.00,WUHU21623XXSP,2013-02-04 12:52:00,
2013-02-04 07:57:00,15.3,10.5,29.96,South,180,0.0,0.0,81,0.00,,,0.00,WUHU21623XXSP,2013-02-04 12:57:00,
2013-02-04 08:02:00,15.3,10.5,29.96,South,180,0.0,0.0,81,0.00,,,0.00,WUHU21623XXSP,2013-02-04 13:02:00,
2013-02-04 08:07:00,15.4,10.7,29.96,South,180,0.0,0.0,81,0.00,,,0.00,WUHU21623XXSP,2013-02-04 13:07:00,
2013-02-04 08:12:00,15.4,10.7,29.96,South,180,0.0,0.0,81,0.00,,,0.00,WUHU21623XXSP,2013-02-04 13:12:00,
2013-02-04 08:17:00,15.6,10.8,29.96,South,180,0.0,0.0,81,0.00,,,0.00,WUHU21623XXSP,2013-02-04 13:17:00,
2013-02-04 08:22:00,15.6,11.1,29.97,South,180,0.0,0.0,82,0.00,,,0.00,WUHU21623XXSP,2013-02-04 13:22:00,
2013-02-04 08:27:00,15.6,11.1,29.97,South,180,0.0,0.0,82,0.00,,,0.00,WUHU21623XXSP,2013-02-04 13:27:00,
2013-02-04 08:32:00,15.6,11.1,29.97,South,180,0.0,0.0,82,0.00,,,0.00,WUHU21623XXSP,2013-02-04 13:32:00,
2013-02-04 08:37:00,15.6,11.1,29.97,South,180,0.0,0.0,82,0.00,,,0.00,WUHU21623XXSP,2013-02-04 13:37:00,
2013-02-04 08:42:00,15.6,11.1,29.97,SSE,157,0.0,0.0,82,0.00,,,0.00,WUHU21623XXSP,2013-02-04 13:42:00,
2013-02-04 08:47:00,15.8,11.3,29.97,South,180,0.0,0.0,82,0.00,,,0.00,WUHU21623XXSP,2013-02-04 13:47:00,
2013-02-04 08:52:00,15.8,11.3,29.98,SSE,157,0.0,0.0,82,0.00,,,0.00,WUHU21623XXSP,2013-02-04 13:52:00,
2013-02-04 08:57:00,16.0,11.4,29.98,SSE,157,0.0,0.0,82,0.00,,,0.00,WUHU21623XXSP,2013-02-04 13:57:00,
2013-02-04 09:02:00,16.0,11.4,29.98,SSE,157,0.0,0.0,82,0.00,,,0.00,WUHU21623XXSP,2013-02-04 14:02:00,
2013-02-04 09:07:00,16.2,11.6,29.98,SSE,157,0.0,0.0,82,0.00,,,0.00,WUHU21623XXSP,2013-02-04 14:07:00,
2013-02-04 09:12:00,16.2,11.6,29.98,SSE,157,0.0,0.0,82,0.00,,,0.00,WUHU21623XXSP,2013-02-04 14:12:00,
2013-02-04 09:17:00,16.3,11.8,29.98,SSE,157,0.0,0.0,82,0.00,,,0.00,WUHU21623XXSP,2013-02-04 14:17:00,
2013-02-04 09:22:00,16.3,11.8,29.98,SSE,157,0.0,0.0,82,0.00,,,0.00,WUHU21623XXSP,2013-02-04 14:22:00,
2013-02-04 09:27:00,16.3,11.8,29.97,SSE,157,0.0,0.0,82,0.00,,,0.00,WUHU21623XXSP,2013-02-04 14:27:00,
2013-02-04 09:32:00,16.5,11.9,29.97,SSE,157,0.0,0.0,82,0.00,,,0.00,WUHU21623XXSP,2013-02-04 14:32:00,
2013-02-04 09:37:00,16.7,12.1,29.98,SSE,157,0.0,0.0,82,0.00,,,0.00,WUHU21623XXSP,2013-02-04 14:37:00,
2013-02-04 09:42:00,16.7,12.1,29.98,SSE,157,0.0,0.0,82,0.00,,,0.00,WUHU21623XXSP,2013-02-04 14:42:00,
2013-02-04 09:47:00,16.9,12.3,29.98,SSE,157,0.0,0.0,82,0.00,,,0.00,WUHU21623XXSP,2013-02-04 14:47:00,
2013-02-04 09:52:00,16.9,12.3,29.98,SSE,157,0.0,0.0,82,0.00,,,0.00,WUHU21623XXSP,2013-02-04 14:52:00,
2013-02-04 09:56:00,17.1,12.3,29.98,SSE,157,0.0,0.0,82,0.00,,,0.00,WUHU21623XXSP,2013-02-04 14:56:00,
2013-02-04 10:01:00,17.2,12.6,29.97,SSE,157,0.0,0.0,82,0.00,,,0.00,WUHU21623XXSP,2013-02-04 15:01:00,
2013-02-04 10:06:00,17.4,12.7,29.97,South,180,0.0,0.0,82,0.00,,,0.00,WUHU21623XXSP,2013-02-04 15:06:00,
2013-02-04 10:11:00,17.4,12.7,29.97,NNE,22,0.0,0.0,82,0.00,,,0.00,WUHU21623XXSP,2013-02-04 15:11:00,
2013-02-04 10:16:00,17.6,12.9,29.96,South,180,0.0,0.0,82,0.00,,,0.00,WUHU21623XXSP,2013-02-04 15:16:00,
2013-02-04 10:21:00,17.8,13.1,29.96,South,180,0.0,0.0,82,0.00,,,0.00,WUHU21623XXSP,2013-02-04 15:21:00,
2013-02-04 10:26:00,17.8,13.1,29.97,South,180,0.0,0.0,82,0.00,,,0.00,WUHU21623XXSP,2013-02-04 15:26:00,
2013-02-04 10:31:00,18.0,13.1,29.97,South,180,0.0,0.0,82,0.00,,,0.00,WUHU21623XXSP,2013-02-04 15:31:00,
2013-02-04 10:36:00,18.1,13.5,29.97,South,180,0.0,0.0,82,0.00,,,0.00,WUHU21623XXSP,2013-02-04 15:36:00,
2013-02-04 10:41:00,18.3,13.4,29.96,South,180,0.0,0.0,81,0.00,,,0.00,WUHU21623XXSP,2013-02-04 15:41:00,
2013-02-04 10:46:00,18.3,13.4,29.96,South,180,0.0,0.0,81,0.00,,,0.00,WUHU21623XXSP,2013-02-04 15:46:00,
2013-02-04 10:51:00,18.5,13.6,29.96,South,180,0.0,0.0,81,0.00,,,0.00,WUHU21623XXSP,2013-02-04 15:51:00,
2013-02-04 10:56:00,18.7,13.6,29.96,South,180,0.0,0.0,81,0.00,,,0.00,WUHU21623XXSP,2013-02-04 15:56:00,
2013-02-04 11:01:00,18.9,13.9,29.97,South,180,0.0,0.0,81,0.00,,,0.00,WUHU21623XXSP,2013-02-04 16:01:00,
2013-02-04 11:06:00,19.2,14.3,29.97,South,180,0.0,0.0,81,0.00,,,0.00,WUHU21623XXSP,2013-02-04 16:06:00,
2013-02-04 11:11:00,19.2,14.3,29.96,South,180,0.0,0.0,81,0.00,,,0.00,WUHU21623XXSP,2013-02-04 16:11:00,
2013-02-04 11:16:00,19.6,14.4,29.96,South,180,0.0,0.0,81,0.00,,,0.00,WUHU21623XXSP,2013-02-04 16:16:00,
2013-02-04 11:21:00,19.6,14.4,29.96,South,180,0.0,0.0,80,0.00,,,0.00,WUHU21623XXSP,2013-02-04 16:21:00,
2013-02-04 11:26:00,19.6,14.4,29.96,South,180,0.0,0.0,80,0.00,,,0.00,WUHU21623XXSP,2013-02-04 16:26:00,
2013-02-04 11:31:00,19.9,14.5,29.96,South,180,0.0,0.0,80,0.00,,,0.00,WUHU21623XXSP,2013-02-04 16:31:00,
2013-02-04 11:36:00,19.9,14.7,29.95,South,180,0.0,0.0,80,0.00,,,0.00,WUHU21623XXSP,2013-02-04 16:36:00,
2013-02-04 11:41:00,20.1,14.9,29.95,NNE,22,0.0,0.0,80,0.00,,,0.00,WUHU21623XXSP,2013-02-04 16:41:00,
2013-02-04 11:46:00,20.5,15.1,29.95,NNE,22,0.0,0.0,80,0.00,,,0.00,WUHU21623XXSP,2013-02-04 16:46:00,
2013-02-04 11:51:00,20.5,15.3,29.95,NNE,22,0.0,0.0,80,0.00,,,0.00,WUHU21623XXSP,2013-02-04 16:51:00,
2013-02-04 11:56:00,20.8,15.6,29.94,NE,45,0.0,0.0,80,0.00,,,0.00,WUHU21623XXSP,2013-02-04 16:56:00,
2013-02-04 12:01:00,21.0,15.8,29.94,NE,45,0.0,0.0,80,0.00,,,0.00,WUHU21623XXSP,2013-02-04 17:01:00,
2013-02-04 12:06:00,21.4,16.2,29.93,NE,45,0.0,0.0,80,0.00,,,0.00,WUHU21623XXSP,2013-02-04 17:06:00,
2013-02-04 12:11:00,21.4,15.9,29.93,NE,45,0.0,0.0,79,0.00,,,0.00,WUHU21623XXSP,2013-02-04 17:11:00,
2013-02-04 12:16:00,21.6,16.0,29.93,NNE,22,0.0,0.0,79,0.00,,,0.00,WUHU21623XXSP,2013-02-04 17:16:00,
2013-02-04 12:21:00,21.7,16.2,29.93,South,180,0.0,0.0,79,0.00,,,0.00,WUHU21623XXSP,2013-02-04 17:21:00,
2013-02-04 12:26:00,21.9,16.1,29.93,South,180,0.0,0.0,78,0.00,,,0.00,WUHU21623XXSP,2013-02-04 17:26:00,
2013-02-04 12:31:00,21.9,15.9,29.93,NNE,22,0.0,0.0,78,0.00,,,0.00,WUHU21623XXSP,2013-02-04 17:31:00,
2013-02-04 12:36:00,21.9,16.1,29.92,NNE,22,0.0,0.0,78,0.00,,,0.00,WUHU21623XXSP,2013-02-04 17:36:00,
2013-02-04 12:41:00,21.9,16.1,29.92,NNE,22,0.0,0.0,78,0.00,,,0.00,WUHU21623XXSP,2013-02-04 17:41:00,
2013-02-04 12:46:00,21.9,16.1,29.92,South,180,0.0,0.0,78,0.00,,,0.00,WUHU21623XXSP,2013-02-04 17:46:00,
2013-02-04 12:51:00,22.3,16.1,29.92,NNE,22,0.0,0.0,77,0.00,,,0.00,WUHU21623XXSP,2013-02-04 17:51:00,
2013-02-04 12:56:00,22.1,16.0,29.92,NNE,22,0.0,0.0,77,0.00,,,0.00,WUHU21623XXSP,2013-02-04 17:56:00,
2013-02-04 13:02:00,22.1,16.0,29.91,NNE,22,0.0,0.0,77,0.00,,,0.00,WUHU21623XXSP,2013-02-04 18:02:00,
2013-02-04 13:07:00,22.1,16.0,29.91,NE,45,0.0,0.0,77,0.00,,,0.00,WUHU21623XXSP,2013-02-04 18:07:00,
2013-02-04 13:12:00,22.3,16.1,29.91,NE,45,0.0,0.0,77,0.00,,,0.00,WUHU21623XXSP,2013-02-04 18:12:00,
2013-02-04 13:17:00,22.5,16.3,29.91,NE,45,0.0,0.0,77,0.00,,,0.00,WUHU21623XXSP,2013-02-04 18:17:00,
2013-02-04 13:22:00,22.5,16.3,29.91,NNE,22,0.0,0.0,77,0.00,,,0.00,WUHU21623XXSP,2013-02-04 18:22:00,
2013-02-04 13:27:00,22.5,16.3,29.91,NNE,22,0.0,0.0,77,0.00,,,0.00,WUHU21623XXSP,2013-02-04 18:27:00,
2013-02-04 13:32:00,22.6,16.5,29.91,NNE,22,0.0,0.0,77,0.00,,,0.00,WUHU21623XXSP,2013-02-04 18:32:00,
2013-02-04 13:37:00,22.8,16.4,29.91,NE,45,0.0,0.0,76,0.00,,,0.00,WUHU21623XXSP,2013-02-04 18:37:00,
2013-02-04 13:42:00,22.8,16.4,29.90,NE,45,0.0,0.0,76,0.00,,,0.00,WUHU21623XXSP,2013-02-04 18:42:00,
2013-02-04 13:47:00,22.8,16.4,29.91,NNE,22,0.0,0.0,76,0.00,,,0.00,WUHU21623XXSP,2013-02-04 18:47:00,
2013-02-04 13:52:00,23.0,16.6,29.90,NNE,22,0.0,0.0,76,0.00,,,0.00,WUHU21623XXSP,2013-02-04 18:52:00,
2013-02-04 13:57:00,23.2,16.7,29.90,NNE,22,0.0,0.0,76,0.00,,,0.00,WUHU21623XXSP,2013-02-04 18:57:00,
2013-02-04 14:02:00,23.0,16.6,29.90,NE,45,0.0,0.0,76,0.00,,,0.00,WUHU21623XXSP,2013-02-04 19:02:00,
2013-02-04 14:07:00,23.0,16.6,29.89,NE,45,0.0,0.0,76,0.00,,,0.00,WUHU21623XXSP,2013-02-04 19:07:00,
2013-02-04 14:12:00,23.2,16.7,29.89,NE,45,0.0,0.0,76,0.00,,,0.00,WUHU21623XXSP,2013-02-04 19:12:00,
2013-02-04 14:17:00,23.4,16.9,29.89,NE,45,0.0,0.0,76,0.00,,,0.00,WUHU21623XXSP,2013-02-04 19:17:00,
2013-02-04 14:22:00,23.5,17.1,29.89,NE,45,0.0,0.0,76,0.00,,,0.00,WUHU21623XXSP,2013-02-04 19:22:00,
2013-02-04 14:27:00,23.5,17.1,29.89,NE,45,0.0,0.0,76,0.00,,,0.00,WUHU21623XXSP,2013-02-04 19:27:00,
2013-02-04 14:32:00,23.7,17.2,29.89,NE,45,0.0,0.0,76,0.00,,,0.00,WUHU21623XXSP,2013-02-04 19:32:00,
2013-02-04 14:37:00,23.9,17.4,29.89,NE,45,0.0,0.0,76,0.00,,,0.00,WUHU21623XXSP,2013-02-04 19:37:00,
2013-02-04 14:42:00,23.9,17.4,29.88,NE,45,0.0,0.0,76,0.00,,,0.00,WUHU21623XXSP,2013-02-04 19:42:00,
2013-02-04 14:47:00,24.1,17.6,29.89,NE,45,0.0,0.0,76,0.00,,,0.00,WUHU21623XXSP,2013-02-04 19:47:00,
2013-02-04 14:52:00,24.4,17.9,29.89,NE,45,0.0,0.0,76,0.00,,,0.00,WUHU21623XXSP,2013-02-04 19:52:00,
2013-02-04 14:57:00,24.4,17.6,29.88,NE,45,0.0,0.0,75,0.00,,,0.00,WUHU21623XXSP,2013-02-04 19:57:00,
2013-02-04 15:02:00,24.4,17.6,29.88,NE,45,0.0,0.0,75,0.00,,,0.00,WUHU21623XXSP,2013-02-04 20:02:00,
2013-02-04 15:07:00,24.4,17.6,29.88,NE,45,0.0,0.0,75,0.00,,,0.00,WUHU21623XXSP,2013-02-04 20:07:00,
2013-02-04 15:12:00,24.4,17.6,29.88,NE,45,0.0,0.0,75,0.00,,,0.00,WUHU21623XXSP,2013-02-04 20:12:00,
2013-02-04 15:17:00,24.1,17.3,29.88,NE,45,0.0,0.0,75,0.00,,,0.00,WUHU21623XXSP,2013-02-04 20:17:00,
2013-02-04 15:22:00,24.4,17.6,29.88,NE,45,0.0,0.0,75,0.00,,,0.00,WUHU21623XXSP,2013-02-04 20:22:00,
2013-02-04 15:27:00,24.4,17.6,29.88,NE,45,0.0,0.0,75,0.00,,,0.00,WUHU21623XXSP,2013-02-04 20:27:00,
2013-02-04 15:32:00,24.4,17.6,29.88,NE,45,0.0,0.0,75,0.00,,,0.00,WUHU21623XXSP,2013-02-04 20:32:00,
2013-02-04 15:37:00,24.4,17.6,29.88,NE,45,0.0,0.0,75,0.00,,,0.00,WUHU21623XXSP,2013-02-04 20:37:00,
2013-02-04 15:42:00,24.1,17.3,29.88,NE,45,0.0,0.0,75,0.00,,,0.00,WUHU21623XXSP,2013-02-04 20:42:00,
2013-02-04 15:47:00,24.1,17.3,29.88,NE,45,0.0,0.0,75,0.00,,,0.00,WUHU21623XXSP,2013-02-04 20:47:00,
2013-02-04 15:52:00,23.9,17.3,29.88,NE,45,0.0,0.0,75,0.00,,,0.00,WUHU21623XXSP,2013-02-04 20:52:00,
2013-02-04 15:57:00,24.1,17.3,29.88,NE,45,0.0,0.0,75,0.00,,,0.00,WUHU21623XXSP,2013-02-04 20:57:00,
2013-02-04 16:02:00,23.7,16.9,29.88,NE,45,0.0,0.0,75,0.00,,,0.00,WUHU21623XXSP,2013-02-04 21:02:00,
2013-02-04 16:07:00,23.5,16.8,29.88,NE,45,0.0,0.0,75,0.00,,,0.00,WUHU21623XXSP,2013-02-04 21:07:00,
2013-02-04 16:12:00,23.5,16.8,29.88,NE,45,0.0,0.0,75,0.00,,,0.00,WUHU21623XXSP,2013-02-04 21:12:00,
2013-02-04 16:17:00,23.4,16.6,29.88,NE,45,0.0,0.0,75,0.00,,,0.00,WUHU21623XXSP,2013-02-04 21:17:00,
2013-02-04 16:22:00,23.4,16.6,29.88,NNE,22,0.0,0.0,75,0.00,,,0.00,WUHU21623XXSP,2013-02-04 21:22:00,
2013-02-04 16:27:00,23.4,16.6,29.88,NNE,22,0.0,0.0,75,0.00,,,0.00,WUHU21623XXSP,2013-02-04 21:27:00,
2013-02-04 16:32:00,23.4,16.6,29.88,NNE,22,0.0,0.0,75,0.00,,,0.00,WUHU21623XXSP,2013-02-04 21:32:00,
2013-02-04 16:37:00,23.2,16.4,29.87,NNE,22,0.0,0.0,75,0.00,,,0.00,WUHU21623XXSP,2013-02-04 21:37:00,
2013-02-04 16:42:00,23.0,16.6,29.88,NNE,22,0.0,0.0,76,0.00,,,0.00,WUHU21623XXSP,2013-02-04 21:42:00,
2013-02-04 16:47:00,22.8,16.4,29.88,North,0,0.0,0.0,76,0.00,,,0.00,WUHU21623XXSP,2013-02-04 21:47:00,
2013-02-04 16:52:00,22.6,16.2,29.88,North,0,0.0,0.0,76,0.00,,,0.00,WUHU21623XXSP,2013-02-04 21:52:00,
2013-02-04 16:57:00,22.5,16.0,29.88,NNE,22,0.0,0.0,76,0.00,,,0.00,WUHU21623XXSP,2013-02-04 21:57:00,
2013-02-04 17:02:00,22.5,16.0,29.88,North,0,0.0,0.0,76,0.00,,,0.00,WUHU21623XXSP,2013-02-04 22:02:00,
2013-02-04 17:07:00,22.3,15.8,29.87,North,0,0.0,0.0,76,0.00,,,0.00,WUHU21623XXSP,2013-02-04 22:07:00,
2013-02-04 17:12:00,22.1,16.0,29.88,North,0,0.0,0.0,77,0.00,,,0.00,WUHU21623XXSP,2013-02-04 22:12:00,
2013-02-04 17:17:00,22.1,16.0,29.87,North,0,0.0,0.0,77,0.00,,,0.00,WUHU21623XXSP,2013-02-04 22:17:00,
2013-02-04 17:22:00,21.9,15.8,29.87,North,0,0.0,0.0,77,0.00,,,0.00,WUHU21623XXSP,2013-02-04 22:22:00,
2013-02-04 17:27:00,21.9,15.8,29.87,North,0,0.0,0.0,77,0.00,,,0.00,WUHU21623XXSP,2013-02-04 22:27:00,
2013-02-04 17:32:00,21.9,15.8,29.87,North,0,0.0,0.0,77,0.00,,,0.00,WUHU21623XXSP,2013-02-04 22:32:00,
2013-02-04 17:37:00,21.7,15.6,29.87,North,0,0.0,0.0,77,0.00,,,0.00,WUHU21623XXSP,2013-02-04 22:37:00,
2013-02-04 17:42:00,21.6,15.4,29.87,North,0,0.0,0.0,77,0.00,,,0.00,WUHU21623XXSP,2013-02-04 22:42:00,
2013-02-04 17:47:00,21.6,15.4,29.87,North,0,0.0,0.0,77,0.00,,,0.00,WUHU21623XXSP,2013-02-04 22:47:00,
2013-02-04 17:52:00,21.4,15.5,29.87,North,0,0.0,0.0,78,0.00,,,0.00,WUHU21623XXSP,2013-02-04 22:52:00,
2013-02-04 17:57:00,21.4,15.5,29.87,North,0,0.0,0.0,78,0.00,,,0.00,WUHU21623XXSP,2013-02-04 22:57:00,
2013-02-04 18:02:00,21.0,15.2,29.87,NNE,22,0.0,0.0,78,0.00,,,0.00,WUHU21623XXSP,2013-02-04 23:02:00,
2013-02-04 18:07:00,21.0,15.2,29.88,NNE,22,0.0,0.0,78,0.00,,,0.00,WUHU21623XXSP,2013-02-04 23:07:00,
2013-02-04 18:12:00,20.8,15.0,29.87,NNE,22,0.0,0.0,78,0.00,,,0.00,WUHU21623XXSP,2013-02-04 23:12:00,
2013-02-04 18:17:00,20.8,15.3,29.88,NNE,22,0.0,0.0,79,0.00,,,0.00,WUHU21623XXSP,2013-02-04 23:17:00,
2013-02-04 18:22:00,20.5,15.0,29.87,NNE,22,0.0,0.0,79,0.00,,,0.00,WUHU21623XXSP,2013-02-04 23:22:00,
2013-02-04 18:27:00,20.5,15.0,29.87,NNW,337,0.0,0.0,79,0.00,,,0.00,WUHU21623XXSP,2013-02-04 23:27:00,
2013-02-04 18:32:00,20.5,15.0,29.87,North,0,0.0,0.0,79,0.00,,,0.00,WUHU21623XXSP,2013-02-04 23:32:00,
2013-02-04 18:37:00,20.5,15.0,29.88,North,0,0.0,0.0,79,0.00,,,0.00,WUHU21623XXSP,2013-02-04 23:37:00,
2013-02-04 18:42:00,20.5,15.0,29.88,North,0,0.0,0.0,79,0.00,,,0.00,WUHU21623XXSP,2013-02-04 23:42:00,
2013-02-04 18:47:00,20.1,14.6,29.88,NNE,22,0.0,0.0,79,0.00,,,0.00,WUHU21623XXSP,2013-02-04 23:47:00,
2013-02-04 18:52:00,20.1,14.9,29.88,North,0,0.0,0.0,80,0.00,,,0.00,WUHU21623XXSP,2013-02-04 23:52:00,
2013-02-04 18:57:00,20.1,14.9,29.88,NNE,22,0.0,0.0,80,0.00,,,0.00,WUHU21623XXSP,2013-02-04 23:57:00,
2013-02-04 19:02:00,19.9,14.7,29.88,NNE,22,0.0,0.0,80,0.00,,,0.00,WUHU21623XXSP,2013-02-05 00:02:00,
2013-02-04 19:07:00,19.9,14.7,29.88,North,0,0.0,0.0,80,0.00,,,0.00,WUHU21623XXSP,2013-02-05 00:07:00,
2013-02-04 19:12:00,19.9,14.7,29.88,NE,45,0.0,0.0,80,0.00,,,0.00,WUHU21623XXSP,2013-02-05 00:12:00,
2013-02-04 19:17:00,19.8,14.4,29.88,NE,45,0.0,0.0,81,0.00,,,0.00,WUHU21623XXSP,2013-02-05 00:17:00,
2013-02-04 19:22:00,19.6,14.6,29.89,NE,45,0.0,0.0,81,0.00,,,0.00,WUHU21623XXSP,2013-02-05 00:22:00,
2013-02-04 19:27:00,19.6,14.6,29.89,NNE,22,0.0,0.0,81,0.00,,,0.00,WUHU21623XXSP,2013-02-05 00:27:00,
2013-02-04 19:32:00,19.6,14.6,29.89,North,0,0.0,0.0,81,0.00,,,0.00,WUHU21623XXSP,2013-02-05 00:32:00,
2013-02-04 19:37:00,19.6,14.6,29.89,North,0,0.0,0.0,81,0.00,,,0.00,WUHU21623XXSP,2013-02-05 00:37:00,
2013-02-04 19:42:00,19.6,14.6,29.89,NNE,22,0.0,0.0,81,0.00,,,0.00,WUHU21623XXSP,2013-02-05 00:42:00,
2013-02-04 19:47:00,19.6,14.6,29.89,NNE,22,0.0,0.0,81,0.00,,,0.00,WUHU21623XXSP,2013-02-05 00:47:00,
2013-02-04 19:52:00,19.4,14.4,29.90,NNE,22,0.0,0.0,81,0.00,,,0.00,WUHU21623XXSP,2013-02-05 00:52:00,
2013-02-04 19:57:00,19.4,14.4,29.89,North,0,0.0,0.0,81,0.00,,,0.00,WUHU21623XXSP,2013-02-05 00:57:00,
2013-02-04 20:02:00,19.4,14.4,29.90,North,0,0.0,0.0,81,0.00,,,0.00,WUHU21623XXSP,2013-02-05 01:02:00,
2013-02-04 20:07:00,19.4,14.4,29.90,North,0,0.0,0.0,81,0.00,,,0.00,WUHU21623XXSP,2013-02-05 01:07:00,
2013-02-04 20:12:00,19.4,14.4,29.91,North,0,0.0,0.0,81,0.00,,,0.00,WUHU21623XXSP,2013-02-05 01:12:00,
2013-02-04 20:17:00,19.2,14.3,29.91,North,0,0.0,0.0,81,0.00,,,0.00,WUHU21623XXSP,2013-02-05 01:17:00,
2013-02-04 20:22:00,19.4,14.4,29.91,North,0,0.0,0.0,81,0.00,,,0.00,WUHU21623XXSP,2013-02-05 01:22:00,
2013-02-04 20:27:00,19.2,14.3,29.91,NNW,337,0.0,0.0,81,0.00,,,0.00,WUHU21623XXSP,2013-02-05 01:27:00,
2013-02-04 20:32:00,19.2,14.3,29.91,NNW,337,0.0,6.3,81,0.00,,,0.00,WUHU21623XXSP,2013-02-05 01:32:00,
2013-02-04 20:37:00,19.2,14.3,29.91,North,0,0.0,6.3,81,0.00,,,0.00,WUHU21623XXSP,2013-02-05 01:37:00,
2013-02-04 20:42:00,19.2,14.3,29.91,NNW,337,0.0,0.0,81,0.00,,,0.00,WUHU21623XXSP,2013-02-05 01:42:00,
2013-02-04 20:47:00,19.0,14.1,29.91,NNW,337,0.0,0.0,81,0.00,,,0.00,WUHU21623XXSP,2013-02-05 01:47:00,
2013-02-04 20:52:00,19.0,14.1,29.91,NNE,22,0.0,0.0,81,0.00,,,0.00,WUHU21623XXSP,2013-02-05 01:52:00,
2013-02-04 20:57:00,19.0,14.1,29.91,North,0,0.0,0.0,81,0.00,,,0.00,WUHU21623XXSP,2013-02-05 01:57:00,
2013-02-04 21:02:00,18.9,13.9,29.91,North,0,0.0,0.0,81,0.00,,,0.00,WUHU21623XXSP,2013-02-05 02:02:00,
2013-02-04 21:07:00,18.9,13.9,29.91,NNE,22,0.0,0.0,81,0.00,,,0.00,WUHU21623XXSP,2013-02-05 02:07:00,
2013-02-04 21:12:00,18.9,13.9,29.92,NNW,337,0.0,0.0,81,0.00,,,0.00,WUHU21623XXSP,2013-02-05 02:12:00,
2013-02-04 21:17:00,18.7,13.7,29.92,NNW,337,0.0,0.0,81,0.00,,,0.00,WUHU21623XXSP,2013-02-05 02:17:00,
2013-02-04 21:22:00,18.7,13.7,29.92,North,0,0.0,0.0,81,0.00,,,0.00,WUHU21623XXSP,2013-02-05 02:22:00,
2013-02-04 21:27:00,18.5,13.6,29.92,NNW,337,0.0,0.0,81,0.00,,,0.00,WUHU21623XXSP,2013-02-05 02:27:00,
2013-02-04 21:32:00,18.5,13.8,29.92,North,0,0.0,0.0,82,0.00,,,0.00,WUHU21623XXSP,2013-02-05 02:32:00,
2013-02-04 21:37:00,18.3,13.6,29.92,North,0,0.0,0.0,82,0.00,,,0.00,WUHU21623XXSP,2013-02-05 02:37:00,
2013-02-04 21:42:00,18.3,13.6,29.92,North,0,0.0,0.0,82,0.00,,,0.00,WUHU21623XXSP,2013-02-05 02:42:00,
2013-02-04 21:47:00,18.3,13.6,29.92,North,0,0.0,0.0,82,0.00,,,0.00,WUHU21623XXSP,2013-02-05 02:47:00,
2013-02-04 21:52:00,18.3,13.6,29.92,North,0,0.0,0.0,82,0.00,,,0.00,WUHU21623XXSP,2013-02-05 02:52:00,
2013-02-04 21:57:00,18.3,13.6,29.91,NE,45,0.0,0.0,82,0.00,,,0.00,WUHU21623XXSP,2013-02-05 02:57:00,
2013-02-04 22:02:00,18.1,13.5,29.91,NNE,22,0.0,0.0,82,0.00,,,0.00,WUHU21623XXSP,2013-02-05 03:02:00,
2013-02-04 22:07:00,18.1,13.5,29.91,NNE,22,0.0,0.0,82,0.00,,,0.00,WUHU21623XXSP,2013-02-05 03:07:00,
2013-02-04 22:12:00,18.1,13.5,29.91,NNE,22,0.0,0.0,82,0.00,,,0.00,WUHU21623XXSP,2013-02-05 03:12:00,
2013-02-04 22:17:00,18.0,13.3,29.91,NNW,337,0.0,0.0,82,0.00,,,0.00,WUHU21623XXSP,2013-02-05 03:17:00,
2013-02-04 22:22:00,17.8,13.1,29.91,North,0,0.0,0.0,82,0.00,,,0.00,WUHU21623XXSP,2013-02-05 03:22:00,
2013-02-04 22:27:00,17.8,13.4,29.91,North,0,0.0,0.0,83,0.00,,,0.00,WUHU21623XXSP,2013-02-05 03:27:00,
2013-02-04 22:32:00,17.8,13.4,29.91,North,0,0.0,0.0,82,0.00,,,0.00,WUHU21623XXSP,2013-02-05 03:32:00,
2013-02-04 22:37:00,17.8,13.4,29.91,North,0,0.0,0.0,83,0.00,,,0.00,WUHU21623XXSP,2013-02-05 03:37:00,
2013-02-04 22:42:00,17.8,13.4,29.91,NE,45,0.0,0.0,83,0.00,,,0.00,WUHU21623XXSP,2013-02-05 03:42:00,
2013-02-04 22:47:00,17.8,13.4,29.91,North,0,0.0,2.0,83,0.00,,,0.00,WUHU21623XXSP,2013-02-05 03:47:00,
2013-02-04 22:52:00,17.4,13.4,29.91,North,0,0.0,2.0,83,0.00,,,0.00,WUHU21623XXSP,2013-02-05 03:52:00,
2013-02-04 22:57:00,17.4,13.0,29.91,North,0,0.0,0.0,83,0.00,,,0.00,WUHU21623XXSP,2013-02-05 03:57:00,
2013-02-04 23:02:00,17.4,13.0,29.91,North,0,0.0,0.0,83,0.00,,,0.00,WUHU21623XXSP,2013-02-05 04:02:00,
2013-02-04 23:07:00,17.4,13.0,29.91,North,0,0.0,0.0,83,0.00,,,0.00,WUHU21623XXSP,2013-02-05 04:07:00,
2013-02-04 23:12:00,17.4,13.0,29.91,North,0,0.0,0.0,83,0.00,,,0.00,WUHU21623XXSP,2013-02-05 04:12:00,
2013-02-04 23:17:00,17.4,13.0,29.92,North,0,0.0,0.0,83,0.00,,,0.00,WUHU21623XXSP,2013-02-05 04:17:00,
2013-02-04 23:22:00,17.4,13.0,29.91,North,0,0.0,0.0,83,0.00,,,0.00,WUHU21623XXSP,2013-02-05 04:22:00,
2013-02-04 23:27:00,17.4,13.0,29.91,North,0,0.0,0.0,83,0.00,,,0.00,WUHU21623XXSP,2013-02-05 04:27:00,
2013-02-04 23:32:00,17.2,12.8,29.92,NNW,337,1.6,1.6,83,0.00,,,0.00,WUHU21623XXSP,2013-02-05 04:32:00,
2013-02-04 23:37:00,17.2,12.8,29.93,NNW,337,0.0,1.6,83,0.00,,,0.00,WUHU21623XXSP,2013-02-05 04:37:00,
2013-02-04 23:42:00,17.2,12.8,29.92,NNW,337,0.0,0.0,83,0.00,,,0.00,WUHU21623XXSP,2013-02-05 04:42:00,
2013-02-04 23:47:00,17.2,12.8,29.93,NNW,337,0.0,0.0,83,0.00,,,0.00,WUHU21623XXSP,2013-02-05 04:47:00,
2013-02-04 23:52:00,17.2,12.8,29.93,NNW,337,0.0,0.0,83,0.00,,,0.00,WUHU21623XXSP,2013-02-05 04:52:00,
2013-02-04 23:57:00,17.2,12.8,29.93,NNW,337,0.0,0.0,83,0.00,,,0.00,WUHU21623XXSP,2013-02-05 04:57:00,